TimeSAST,TemperatureF,Dew PointF,Humidity,Sea Level PressureIn,VisibilityMPH,Wind Direction,Wind SpeedMPH,Gust SpeedMPH,PrecipitationIn,Events,Conditions,WindDirDegrees,DateUTC
12:00 AM,71.6,48.2,43,29.89,-9999.0,SW,12.7,-,N/A,,Unknown,230,2012-10-16 22:00:00
1:00 AM,69.8,48.2,46,29.89,-9999.0,SW,12.7,-,N/A,,Unknown,220,2012-10-16 23:00:00
2:00 AM,68,50,41,,,SW,12.7,,,,,220,2012-10-17 00:00:00
2:00 AM,68.0,48.2,49,29.89,-9999.0,SW,11.5,-,N/A,,Unknown,220,2012-10-17 00:00:00
3:00 AM,64.4,48.2,56,29.86,-9999.0,SW,6.9,-,N/A,,Unknown,230,2012-10-17 01:00:00
4:00 AM,62.6,50.0,63,29.86,-9999.0,WSW,9.2,-,N/A,,Unknown,240,2012-10-17 02:00:00
5:00 AM,63,51,55,,25,WSW,11.5,,,,,240,2012-10-17 03:00:00
5:00 AM,62.6,50.0,63,29.89,-9999.0,WSW,10.4,-,N/A,,Clear,240,2012-10-17 03:00:00
6:00 AM,60.8,50.0,68,29.89,-9999.0,WSW,8.1,-,N/A,,Clear,240,2012-10-17 04:00:00
7:00 AM,62.6,50.0,63,29.92,-9999.0,SW,8.1,-,N/A,,Clear,230,2012-10-17 05:00:00
8:00 AM,67,52,49,,25,WSW,11.5,,,,,240,2012-10-17 06:00:00
8:00 AM,66.2,51.8,60,29.92,-9999.0,WSW,10.4,-,N/A,,Clear,240,2012-10-17 06:00:00
9:00 AM,68.0,50.0,52,29.92,-9999.0,WSW,10.4,-,N/A,,Clear,240,2012-10-17 07:00:00
10:00 AM,71.6,51.8,50,29.95,-9999.0,SW,11.5,-,N/A,,Clear,230,2012-10-17 08:00:00
11:00 AM,76,52,32,,19,WSW,11.5,,,,Haze,240,2012-10-17 09:00:00
11:00 AM,75.2,51.8,44,29.92,6.2,WSW,11.5,-,N/A,,Partly Cloudy,240,2012-10-17 09:00:00
11:38 AM,78.8,50.0,36,29.92,6.2,WSW,9.2,-,N/A,,Partly Cloudy,240,2012-10-17 09:38:00
12:00 PM,78.8,46.4,32,29.89,6.2,WSW,9.2,-,N/A,,Partly Cloudy,240,2012-10-17 10:00:00
12:15 PM,80.6,44.6,28,29.89,6.2,WSW,9.2,-,N/A,,Partly Cloudy,250,2012-10-17 10:15:00
1:00 PM,82.4,41.0,23,29.89,6.2,West,8.1,-,N/A,,Partly Cloudy,260,2012-10-17 11:00:00
2:00 PM,84,40,12,,25,WSW,11.5,,,,Scattered Clouds,240,2012-10-17 12:00:00
2:00 PM,82.4,39.2,21,29.86,6.2,WSW,10.4,-,N/A,,Partly Cloudy,240,2012-10-17 12:00:00
3:00 PM,86.0,39.2,19,29.83,6.2,WSW,9.2,20.7,N/A,,Partly Cloudy,240,2012-10-17 13:00:00
4:00 PM,82.4,37.4,20,29.83,6.2,SW,11.5,-,N/A,,Partly Cloudy,220,2012-10-17 14:00:00
5:00 PM,84,41,13,,25,SW,11.5,,,,Scattered Clouds,230,2012-10-17 15:00:00
5:00 PM,84.2,39.2,20,29.83,6.2,SW,10.4,-,N/A,,Partly Cloudy,230,2012-10-17 15:00:00
6:00 PM,82.4,33.8,17,29.86,6.2,SW,11.5,-,N/A,,Partly Cloudy,230,2012-10-17 16:00:00
7:00 PM,77.0,37.4,24,29.86,6.2,SW,9.2,-,N/A,,Partly Cloudy,220,2012-10-17 17:00:00
8:00 PM,74,40,19,,25,SW,6.9,,,,Scattered Clouds,220,2012-10-17 18:00:00
8:00 PM,73.4,39.2,29,29.86,6.2,SW,5.8,-,N/A,,Partly Cloudy,220,2012-10-17 18:00:00
9:00 PM,68.0,41.0,37,29.89,-9999.0,SW,5.8,-,N/A,,Unknown,230,2012-10-17 19:00:00
10:00 PM,71.6,42.8,35,29.92,-9999.0,SSW,12.7,-,N/A,,Unknown,210,2012-10-17 20:00:00
11:00 PM,72,47,30,,,SW,11.5,,,,,220,2012-10-17 21:00:00
11:00 PM,71.6,46.4,41,29.92,-9999.0,SW,11.5,-,N/A,,Unknown,220,2012-10-17 21:00:00